Time,TemperatureF,DewpointF,PressureIn,WindDirection,WindDirectionDegrees,WindSpeedMPH,WindSpeedGustMPH,Humidity,HourlyPrecipIn,Conditions,Clouds,dailyrainin,SolarRadiationWatts/m^2,SoftwareType,DateUTC
2013-05-10 00:01:00,61.9,58.0,29.86,SE,146,0.0,3.0,87,0.00,,,0.03,0,Wunderground v.1.15,2013-05-10 04:01:00,
2013-05-10 00:03:00,61.8,57.9,29.86,SE,140,0.0,3.0,87,0.00,,,0.03,0,Wunderground v.1.15,2013-05-10 04:03:00,
2013-05-10 00:05:00,61.7,57.8,29.86,SE,137,0.0,3.0,87,0.00,,,0.03,0,Wunderground v.1.15,2013-05-10 04:05:00,
2013-05-10 00:10:00,61.6,57.4,29.86,SE,138,0.0,3.0,86,0.00,,,0.03,0,Wunderground v.1.15,2013-05-10 04:10:00,
2013-05-10 00:13:00,61.6,57.4,29.86,SSW,192,0.0,3.0,86,0.00,,,0.03,0,Wunderground v.1.15,2013-05-10 04:13:00,
2013-05-10 00:19:00,61.8,57.2,29.86,South,191,0.0,3.0,85,0.00,,,0.03,0,Wunderground v.1.15,2013-05-10 04:19:00,
2013-05-10 00:25:00,61.8,57.2,29.86,SSW,192,0.0,3.0,85,0.00,,,0.04,0,Wunderground v.1.15,2013-05-10 04:25:00,
2013-05-10 00:31:00,61.7,57.5,29.86,South,180,0.0,3.0,86,0.00,,,0.04,0,Wunderground v.1.15,2013-05-10 04:31:00,
2013-05-10 00:36:00,61.6,57.4,29.86,SSW,200,0.0,3.0,86,0.06,,,0.05,0,Wunderground v.1.15,2013-05-10 04:36:00,
2013-05-10 00:42:00,61.4,57.5,29.85,SSW,200,0.0,3.0,87,0.21,,,0.02,0,Wunderground v.1.15,2013-05-10 04:42:00,
2013-05-10 00:47:00,61.2,57.6,29.85,SSW,200,0.0,3.0,88,0.17,,,0.03,0,Wunderground v.1.15,2013-05-10 04:47:00,
2013-05-10 00:53:00,61.0,57.7,29.85,SSW,200,0.0,3.0,89,0.18,,,0.05,0,Wunderground v.1.15,2013-05-10 04:53:00,
2013-05-10 00:58:00,60.8,58.0,29.84,SSW,200,0.0,-999.0,89,-99.99,,,0.05,,weatherlink.com 1.10,2013-05-10 04:58:00,
2013-05-10 01:04:00,60.6,57.7,29.84,SSW,200,0.0,5.0,90,0.08,,,0.06,0,Wunderground v.1.15,2013-05-10 05:04:00,
2013-05-10 01:09:00,60.4,57.5,29.83,SSW,194,0.0,5.0,90,0.06,,,0.07,0,Wunderground v.1.15,2013-05-10 05:09:00,
2013-05-10 01:15:00,60.3,57.7,29.83,ESE,123,0.0,5.0,91,0.06,,,0.07,0,Wunderground v.1.15,2013-05-10 05:15:00,
2013-05-10 01:20:00,60.2,57.6,29.82,SE,131,0.0,5.0,91,0.05,,,0.08,0,Wunderground v.1.15,2013-05-10 05:20:00,
2013-05-10 01:26:00,60.0,57.4,29.82,ESE,123,1.0,5.0,91,0.05,,,0.08,0,Wunderground v.1.15,2013-05-10 05:26:00,
2013-05-10 01:32:00,60.0,57.4,29.82,ESE,111,1.0,5.0,91,0.07,,,0.09,0,Wunderground v.1.15,2013-05-10 05:32:00,
2013-05-10 01:38:00,60.0,57.4,29.81,SE,136,1.0,5.0,91,0.08,,,0.10,0,Wunderground v.1.15,2013-05-10 05:38:00,
2013-05-10 01:44:00,60.0,57.0,29.81,SE,134,1.0,-999.0,91,-99.99,,,0.11,,weatherlink.com 1.10,2013-05-10 05:44:00,
2013-05-10 01:50:00,59.9,57.6,29.80,ESE,121,1.0,1.0,92,0.39,,,0.14,0,Wunderground v.1.15,2013-05-10 05:50:00,
2013-05-10 01:56:00,59.8,57.5,29.80,SE,138,2.0,5.0,92,0.33,,,0.17,0,Wunderground v.1.15,2013-05-10 05:56:00,
2013-05-10 02:02:00,59.7,57.4,29.79,SE,127,2.0,6.0,92,0.08,,,0.17,0,Wunderground v.1.15,2013-05-10 06:02:00,
2013-05-10 02:07:00,59.7,57.7,29.79,ESE,120,3.0,6.0,93,0.05,,,0.17,0,Wunderground v.1.15,2013-05-10 06:07:00,
2013-05-10 02:13:00,59.7,58.0,29.79,SSW,201,6.0,-999.0,93,-99.99,,,0.19,,weatherlink.com 1.10,2013-05-10 06:13:00,
2013-05-10 02:19:00,59.9,57.9,29.79,SSW,199,3.0,11.0,93,0.10,,,0.20,0,Wunderground v.1.15,2013-05-10 06:19:00,
2013-05-10 02:25:00,60.0,58.0,29.78,South,190,1.0,7.0,93,0.06,,,0.20,0,Wunderground v.1.15,2013-05-10 06:25:00,
2013-05-10 02:30:00,60.1,58.1,29.78,NNW,342,1.0,1.0,93,0.04,,,0.21,0,Wunderground v.1.15,2013-05-10 06:30:00,
2013-05-10 02:36:00,60.3,58.3,29.78,ENE,67,1.0,6.0,93,0.04,,,0.21,0,Wunderground v.1.15,2013-05-10 06:36:00,
2013-05-10 02:42:00,60.4,58.4,29.77,South,185,1.0,5.0,93,0.04,,,0.21,0,Wunderground v.1.15,2013-05-10 06:42:00,
2013-05-10 02:48:00,60.7,58.4,29.77,South,186,3.0,11.0,92,0.00,,,0.21,0,Wunderground v.1.15,2013-05-10 06:48:00,
2013-05-10 02:54:00,61.0,58.7,29.77,ESE,116,5.0,11.0,92,0.00,,,0.21,0,Wunderground v.1.15,2013-05-10 06:54:00,
2013-05-10 03:00:00,61.4,58.7,29.77,SW,223,7.0,7.0,91,0.00,,,0.21,0,Wunderground v.1.15,2013-05-10 07:00:00,
2013-05-10 03:06:00,61.6,58.9,29.77,SSW,205,8.0,13.0,91,0.00,,,0.21,0,Wunderground v.1.15,2013-05-10 07:06:00,
2013-05-10 03:12:00,61.6,58.9,29.77,South,187,7.0,13.0,91,0.00,,,0.21,0,Wunderground v.1.15,2013-05-10 07:12:00,
2013-05-10 03:17:00,61.7,59.0,29.77,SSW,192,6.0,13.0,91,0.00,,,0.21,0,Wunderground v.1.15,2013-05-10 07:17:00,
2013-05-10 03:23:00,61.9,58.9,29.77,SSW,211,8.0,13.0,90,0.00,,,0.21,0,Wunderground v.1.15,2013-05-10 07:23:00,
2013-05-10 03:28:00,62.0,59.0,29.77,SSW,205,7.0,-999.0,90,-99.99,,,0.21,,weatherlink.com 1.10,2013-05-10 07:28:00,
2013-05-10 03:33:00,62.0,59.3,29.76,SSW,209,8.0,13.0,91,0.00,,,0.21,0,Wunderground v.1.15,2013-05-10 07:33:00,
2013-05-10 03:39:00,62.0,59.0,29.77,SSW,210,7.0,13.0,90,0.00,,,0.21,0,Wunderground v.1.15,2013-05-10 07:39:00,
2013-05-10 03:45:00,62.1,59.1,29.76,SW,225,8.0,13.0,90,0.00,,,0.21,0,Wunderground v.1.15,2013-05-10 07:45:00,
2013-05-10 03:51:00,62.2,59.2,29.76,SSW,210,10.0,13.0,90,0.00,,,0.21,0,Wunderground v.1.15,2013-05-10 07:51:00,
2013-05-10 03:56:00,62.2,58.9,29.77,WSW,243,10.0,13.0,89,0.00,,,0.21,0,Wunderground v.1.15,2013-05-10 07:56:00,
2013-05-10 04:02:00,62.2,59.2,29.77,WSW,238,9.0,16.0,90,0.00,,,0.21,0,Wunderground v.1.15,2013-05-10 08:02:00,
2013-05-10 04:08:00,62.2,59.2,29.77,SSW,210,9.0,20.0,90,0.00,,,0.21,0,Wunderground v.1.15,2013-05-10 08:08:00,
2013-05-10 04:13:00,62.2,59.2,29.77,SSW,203,10.0,16.0,90,0.00,,,0.21,0,Wunderground v.1.15,2013-05-10 08:13:00,
2013-05-10 04:19:00,62.3,59.0,29.77,SSW,213,11.0,17.0,89,0.00,,,0.21,0,Wunderground v.1.15,2013-05-10 08:19:00,
2013-05-10 04:25:00,62.3,59.0,29.77,SW,216,11.0,18.0,89,0.00,,,0.21,0,Wunderground v.1.15,2013-05-10 08:25:00,
2013-05-10 04:31:00,62.2,58.9,29.77,SSW,206,10.0,16.0,89,0.00,,,0.21,0,Wunderground v.1.15,2013-05-10 08:31:00,
2013-05-10 04:36:00,62.3,59.0,29.77,SSW,211,10.0,16.0,89,0.00,,,0.21,0,Wunderground v.1.15,2013-05-10 08:36:00,
2013-05-10 04:42:00,62.2,58.9,29.77,SW,215,9.0,16.0,89,0.00,,,0.21,0,Wunderground v.1.15,2013-05-10 08:42:00,
2013-05-10 04:47:00,62.2,59.2,29.77,SW,227,8.0,16.0,90,0.00,,,0.21,0,Wunderground v.1.15,2013-05-10 08:47:00,
2013-05-10 04:53:00,62.2,59.2,29.77,SW,215,8.0,16.0,90,0.00,,,0.21,0,Wunderground v.1.15,2013-05-10 08:53:00,
2013-05-10 04:58:00,62.2,59.0,29.77,SW,214,7.0,-999.0,90,-99.99,,,0.21,,weatherlink.com 1.10,2013-05-10 08:58:00,
2013-05-10 05:04:00,62.1,59.1,29.77,SW,219,8.0,20.0,90,0.00,,,0.21,0,Wunderground v.1.15,2013-05-10 09:04:00,
2013-05-10 05:09:00,62.1,59.1,29.77,SW,235,7.0,20.0,90,0.00,,,0.21,0,Wunderground v.1.15,2013-05-10 09:09:00,
2013-05-10 05:15:00,62.1,59.0,29.77,SW,218,5.0,-999.0,90,-99.99,,,0.21,,weatherlink.com 1.10,2013-05-10 09:15:00,
2013-05-10 05:20:00,62.0,59.0,29.76,South,169,6.0,6.0,90,0.00,,,0.21,0,Wunderground v.1.15,2013-05-10 09:20:00,
2013-05-10 05:26:00,62.0,59.0,29.76,SW,225,7.0,20.0,90,0.00,,,0.21,0,Wunderground v.1.15,2013-05-10 09:26:00,
2013-05-10 05:32:00,62.0,59.0,29.76,SW,233,8.0,20.0,90,0.00,,,0.21,0,Wunderground v.1.15,2013-05-10 09:32:00,
2013-05-10 05:37:00,62.0,59.0,29.76,SW,225,7.0,20.0,90,0.00,,,0.21,0,Wunderground v.1.15,2013-05-10 09:37:00,
2013-05-10 05:43:00,61.8,59.0,29.76,SSW,197,5.0,-999.0,90,-99.99,,,0.21,,weatherlink.com 1.10,2013-05-10 09:43:00,
2013-05-10 05:49:00,61.6,58.6,29.75,SSW,195,6.0,20.0,90,0.00,,,0.21,0,Wunderground v.1.15,2013-05-10 09:49:00,
2013-05-10 05:55:00,61.3,58.7,29.75,SSW,207,5.0,20.0,91,0.00,,,0.21,0,Wunderground v.1.15,2013-05-10 09:55:00,
2013-05-10 06:00:00,61.2,58.6,29.75,SSW,202,4.0,4.0,91,0.00,,,0.21,0,Wunderground v.1.15,2013-05-10 10:00:00,
2013-05-10 06:06:00,61.0,58.4,29.75,SSW,194,3.0,17.0,91,0.00,,,0.21,0,Wunderground v.1.15,2013-05-10 10:06:00,
2013-05-10 06:12:00,60.9,58.3,29.74,SSW,202,3.0,17.0,91,0.00,,,0.21,0,Wunderground v.1.15,2013-05-10 10:12:00,
2013-05-10 06:17:00,60.8,58.2,29.75,South,186,4.0,17.0,91,0.00,,,0.21,0,Wunderground v.1.15,2013-05-10 10:17:00,
2013-05-10 06:23:00,60.7,58.1,29.75,SSW,198,3.0,17.0,91,0.00,,,0.21,0,Wunderground v.1.15,2013-05-10 10:23:00,
2013-05-10 06:29:00,60.7,58.0,29.75,SSW,194,3.0,-999.0,91,-99.99,,,0.21,,weatherlink.com 1.10,2013-05-10 10:29:00,
2013-05-10 06:34:00,60.7,58.1,29.75,SSW,203,4.0,17.0,91,0.00,,,0.21,5,Wunderground v.1.15,2013-05-10 10:34:00,
2013-05-10 06:40:00,60.8,58.2,29.75,SSW,198,4.0,4.0,91,0.00,,,0.21,9,Wunderground v.1.15,2013-05-10 10:40:00,
2013-05-10 06:46:00,60.8,58.2,29.75,South,175,3.0,17.0,91,0.00,,,0.21,11,Wunderground v.1.15,2013-05-10 10:46:00,
2013-05-10 06:52:00,60.9,58.3,29.75,SSW,202,4.0,17.0,91,0.00,,,0.21,18,Wunderground v.1.15,2013-05-10 10:52:00,
2013-05-10 06:58:00,61.0,58.4,29.76,SSW,210,4.0,17.0,91,0.00,,,0.21,23,Wunderground v.1.15,2013-05-10 10:58:00,
2013-05-10 07:03:00,61.1,58.1,29.76,SSW,212,3.0,10.0,90,0.00,,,0.21,18,Wunderground v.1.15,2013-05-10 11:03:00,
2013-05-10 07:09:00,61.2,58.2,29.75,South,185,4.0,10.0,90,0.00,,,0.21,30,Wunderground v.1.15,2013-05-10 11:09:00,
2013-05-10 07:14:00,61.3,58.3,29.76,SSW,199,4.0,10.0,90,0.00,,,0.21,28,Wunderground v.1.15,2013-05-10 11:14:00,
2013-05-10 07:19:00,61.4,58.4,29.76,South,171,4.0,10.0,90,0.00,,,0.21,30,Wunderground v.1.15,2013-05-10 11:19:00,
2013-05-10 07:25:00,61.6,58.3,29.76,SSW,192,4.0,10.0,89,0.00,,,0.21,40,Wunderground v.1.15,2013-05-10 11:25:00,
2013-05-10 07:31:00,61.7,58.4,29.76,SSW,202,4.0,10.0,89,0.00,,,0.21,62,Wunderground v.1.15,2013-05-10 11:31:00,
2013-05-10 07:37:00,62.0,58.4,29.75,SSW,192,5.0,12.0,88,0.00,,,0.21,72,Wunderground v.1.15,2013-05-10 11:37:00,
2013-05-10 07:42:00,62.1,58.5,29.75,SW,218,7.0,10.0,88,0.00,,,0.21,79,Wunderground v.1.15,2013-05-10 11:42:00,
2013-05-10 07:48:00,62.2,58.6,29.76,SW,229,6.0,10.0,88,0.00,,,0.21,93,Wunderground v.1.15,2013-05-10 11:48:00,
2013-05-10 07:54:00,62.4,58.8,29.76,SW,225,7.0,10.0,88,0.00,,,0.21,95,Wunderground v.1.15,2013-05-10 11:54:00,
2013-05-10 08:00:00,62.5,58.6,29.76,SW,219,7.0,7.0,87,0.00,,,0.21,111,Wunderground v.1.15,2013-05-10 12:00:00,
2013-05-10 08:06:00,62.7,58.8,29.77,SSW,204,7.0,12.0,87,0.00,,,0.21,116,Wunderground v.1.15,2013-05-10 12:06:00,
2013-05-10 08:12:00,62.8,58.9,29.76,SSW,205,6.0,12.0,87,0.00,,,0.21,125,Wunderground v.1.15,2013-05-10 12:12:00,
2013-05-10 08:18:00,62.8,58.9,29.76,SSW,200,6.0,12.0,87,0.00,,,0.21,130,Wunderground v.1.15,2013-05-10 12:18:00,
2013-05-10 08:24:00,62.9,59.0,29.76,SSW,197,7.0,12.0,87,0.00,,,0.21,139,Wunderground v.1.15,2013-05-10 12:24:00,
2013-05-10 08:30:00,62.9,59.0,29.77,SSW,201,10.0,-999.0,87,-99.99,,,0.21,,weatherlink.com 1.10,2013-05-10 12:30:00,
2013-05-10 08:35:00,63.0,59.1,29.76,SW,233,7.0,12.0,87,0.00,,,0.21,156,Wunderground v.1.15,2013-05-10 12:35:00,
2013-05-10 08:41:00,63.1,59.2,29.76,South,190,7.0,9.0,87,0.00,,,0.21,176,Wunderground v.1.15,2013-05-10 12:41:00,
2013-05-10 08:47:00,63.2,58.9,29.76,SW,229,8.0,15.0,86,0.00,,,0.21,188,Wunderground v.1.15,2013-05-10 12:47:00,
2013-05-10 08:53:00,63.3,59.4,29.76,SSW,213,8.0,16.0,87,0.00,,,0.21,199,Wunderground v.1.15,2013-05-10 12:53:00,
2013-05-10 08:58:00,63.3,59.0,29.76,SW,223,4.0,-999.0,86,-99.99,,,0.21,,weatherlink.com 1.10,2013-05-10 12:58:00,
2013-05-10 09:04:00,63.4,59.5,29.77,SW,222,7.0,16.0,87,0.00,,,0.21,118,Wunderground v.1.15,2013-05-10 13:04:00,
2013-05-10 09:10:00,63.3,59.0,29.77,SW,227,8.0,8.0,86,0.00,,,0.21,165,Wunderground v.1.15,2013-05-10 13:10:00,
2013-05-10 09:15:00,63.4,59.5,29.77,SW,232,8.0,16.0,87,0.00,,,0.21,144,Wunderground v.1.15,2013-05-10 13:15:00,
2013-05-10 09:21:00,63.4,59.1,29.77,SSW,205,7.0,16.0,86,0.00,,,0.21,250,Wunderground v.1.15,2013-05-10 13:21:00,
2013-05-10 09:27:00,63.6,59.0,29.76,SW,231,7.0,16.0,85,0.00,,,0.21,241,Wunderground v.1.15,2013-05-10 13:27:00,
2013-05-10 09:33:00,63.7,58.8,29.76,WSW,256,8.0,16.0,84,0.00,,,0.21,279,Wunderground v.1.15,2013-05-10 13:33:00,
2013-05-10 09:40:00,63.9,59.0,29.77,SW,222,7.0,16.0,84,0.00,,,0.21,269,Wunderground v.1.15,2013-05-10 13:40:00,
2013-05-10 09:46:00,64.1,58.8,29.76,WSW,246,9.0,16.0,83,0.00,,,0.21,258,Wunderground v.1.15,2013-05-10 13:46:00,
2013-05-10 09:52:00,64.1,58.5,29.76,WSW,254,9.0,16.0,82,0.00,,,0.21,301,Wunderground v.1.15,2013-05-10 13:52:00,
2013-05-10 09:58:00,64.1,58.8,29.76,SW,230,8.0,16.0,83,0.00,,,0.21,383,Wunderground v.1.15,2013-05-10 13:58:00,
2013-05-10 10:03:00,64.2,58.9,29.76,NW,309,7.0,16.0,83,0.00,,,0.21,325,Wunderground v.1.15,2013-05-10 14:03:00,
2013-05-10 10:09:00,64.2,58.9,29.76,WSW,254,7.0,16.0,83,0.00,,,0.21,264,Wunderground v.1.15,2013-05-10 14:09:00,
2013-05-10 10:15:00,64.3,59.0,29.76,West,279,7.0,-999.0,83,-99.99,,,0.21,,weatherlink.com 1.10,2013-05-10 14:15:00,
2013-05-10 10:20:00,64.2,58.9,29.76,WSW,255,5.0,16.0,83,0.00,,,0.21,135,Wunderground v.1.15,2013-05-10 14:20:00,
2013-05-10 10:25:00,64.1,58.8,29.77,WSW,246,7.0,16.0,83,0.00,,,0.21,155,Wunderground v.1.15,2013-05-10 14:25:00,
2013-05-10 10:31:00,64.3,59.0,29.77,SW,230,6.0,9.0,83,0.00,,,0.21,244,Wunderground v.1.15,2013-05-10 14:31:00,
2013-05-10 10:36:00,64.7,59.4,29.77,SW,227,6.0,16.0,83,0.00,,,0.21,313,Wunderground v.1.15,2013-05-10 14:36:00,
2013-05-10 10:42:00,65.0,59.0,29.77,SW,230,7.0,16.0,81,0.00,,,0.21,603,Wunderground v.1.15,2013-05-10 14:42:00,
2013-05-10 10:48:00,65.3,59.0,29.77,WSW,252,8.0,16.0,80,0.00,,,0.21,466,Wunderground v.1.15,2013-05-10 14:48:00,
2013-05-10 10:54:00,65.4,58.7,29.77,WSW,254,10.0,16.0,79,0.00,,,0.21,251,Wunderground v.1.15,2013-05-10 14:54:00,
2013-05-10 10:59:00,65.2,58.5,29.77,West,271,9.0,16.0,79,0.00,,,0.21,364,Wunderground v.1.15,2013-05-10 14:59:00,
2013-05-10 11:05:00,65.5,59.2,29.77,West,264,7.0,15.0,80,0.00,,,0.21,744,Wunderground v.1.15,2013-05-10 15:05:00,
2013-05-10 11:12:00,66.4,59.0,29.77,WSW,240,7.0,15.0,77,0.00,,,0.21,942,Wunderground v.1.15,2013-05-10 15:12:00,
2013-05-10 11:18:00,66.4,58.6,29.78,SW,236,8.0,17.0,76,0.00,,,0.21,448,Wunderground v.1.15,2013-05-10 15:18:00,
2013-05-10 11:24:00,66.4,58.6,29.78,WSW,257,11.0,15.0,76,0.00,,,0.21,383,Wunderground v.1.15,2013-05-10 15:24:00,
2013-05-10 11:30:00,66.3,58.5,29.77,WSW,244,10.0,10.0,76,0.00,,,0.21,417,Wunderground v.1.15,2013-05-10 15:30:00,
2013-05-10 11:36:00,66.3,58.1,29.78,SSW,203,8.0,16.0,75,0.00,,,0.21,251,Wunderground v.1.15,2013-05-10 15:36:00,
2013-05-10 11:41:00,66.3,58.5,29.78,West,281,9.0,15.0,76,0.00,,,0.21,339,Wunderground v.1.15,2013-05-10 15:41:00,
2013-05-10 11:47:00,66.6,58.1,29.78,WSW,240,10.0,15.0,74,0.00,,,0.21,540,Wunderground v.1.15,2013-05-10 15:47:00,
2013-05-10 11:53:00,66.5,58.3,29.78,WSW,255,9.0,15.0,75,0.00,,,0.21,418,Wunderground v.1.15,2013-05-10 15:53:00,
2013-05-10 11:59:00,66.5,58.0,29.78,WSW,237,12.0,-999.0,75,-99.99,,,0.21,,weatherlink.com 1.10,2013-05-10 15:59:00,
2013-05-10 12:04:00,66.8,58.2,29.77,WSW,252,10.0,24.0,74,0.00,,,0.21,642,Wunderground v.1.15,2013-05-10 16:04:00,
2013-05-10 12:10:00,67.7,58.7,29.77,West,274,9.0,24.0,73,0.00,,,0.21,1160,Wunderground v.1.15,2013-05-10 16:10:00,
2013-05-10 12:16:00,68.3,58.5,29.77,WSW,241,11.0,24.0,71,0.00,,,0.21,1044,Wunderground v.1.15,2013-05-10 16:16:00,
2013-05-10 12:21:00,68.2,58.0,29.77,WSW,246,11.0,24.0,70,0.00,,,0.21,1044,Wunderground v.1.15,2013-05-10 16:21:00,
2013-05-10 12:27:00,67.4,58.1,29.77,SSW,204,10.0,24.0,72,0.00,,,0.21,367,Wunderground v.1.15,2013-05-10 16:27:00,
2013-05-10 12:33:00,67.7,58.0,29.77,WSW,254,7.0,24.0,71,0.00,,,0.21,424,Wunderground v.1.15,2013-05-10 16:33:00,
2013-05-10 12:38:00,67.8,58.4,29.77,West,269,6.0,24.0,72,0.00,,,0.21,446,Wunderground v.1.15,2013-05-10 16:38:00,
2013-05-10 12:44:00,68.1,58.3,29.77,West,267,6.0,24.0,71,0.00,,,0.21,345,Wunderground v.1.15,2013-05-10 16:44:00,
2013-05-10 12:49:00,67.7,58.3,29.77,West,264,6.0,24.0,72,0.00,,,0.21,394,Wunderground v.1.15,2013-05-10 16:49:00,
2013-05-10 12:55:00,67.9,58.5,29.77,WSW,248,7.0,24.0,72,0.00,,,0.21,371,Wunderground v.1.15,2013-05-10 16:55:00,
2013-05-10 13:00:00,67.8,58.4,29.77,WSW,254,6.0,6.0,72,0.00,,,0.21,383,Wunderground v.1.15,2013-05-10 17:00:00,
2013-05-10 13:06:00,67.7,58.0,29.77,West,267,6.0,22.0,71,0.00,,,0.21,292,Wunderground v.1.15,2013-05-10 17:06:00,
2013-05-10 13:11:00,67.2,57.5,29.77,West,279,9.0,22.0,71,0.00,,,0.21,341,Wunderground v.1.15,2013-05-10 17:11:00,
2013-05-10 13:17:00,67.5,58.5,29.77,WSW,243,6.0,22.0,73,0.00,,,0.21,258,Wunderground v.1.15,2013-05-10 17:17:00,
2013-05-10 13:23:00,67.7,58.0,29.77,WSW,249,7.0,22.0,71,0.00,,,0.21,353,Wunderground v.1.15,2013-05-10 17:23:00,
2013-05-10 13:29:00,67.6,57.0,29.77,West,263,14.0,-999.0,70,-99.99,,,0.21,,weatherlink.com 1.10,2013-05-10 17:29:00,
2013-05-10 13:34:00,67.5,57.8,29.77,WSW,243,8.0,22.0,71,0.00,,,0.21,366,Wunderground v.1.15,2013-05-10 17:34:00,
2013-05-10 13:40:00,67.7,58.0,29.77,West,261,7.0,22.0,71,0.00,,,0.21,352,Wunderground v.1.15,2013-05-10 17:40:00,
2013-05-10 13:46:00,67.7,58.0,29.77,WSW,240,6.0,22.0,71,0.00,,,0.21,327,Wunderground v.1.15,2013-05-10 17:46:00,
2013-05-10 13:51:00,67.9,57.8,29.77,WSW,256,6.0,22.0,70,0.00,,,0.21,308,Wunderground v.1.15,2013-05-10 17:51:00,
2013-05-10 13:57:00,67.5,57.4,29.77,WSW,249,7.0,22.0,70,0.00,,,0.21,260,Wunderground v.1.15,2013-05-10 17:57:00,
2013-05-10 14:02:00,67.4,57.7,29.77,WSW,240,7.0,17.0,71,0.00,,,0.21,246,Wunderground v.1.15,2013-05-10 18:02:00,
2013-05-10 14:08:00,67.5,57.8,29.76,WSW,250,6.0,17.0,71,0.00,,,0.21,239,Wunderground v.1.15,2013-05-10 18:08:00,
2013-05-10 14:14:00,67.4,58.0,29.77,West,264,10.0,-999.0,71,-99.99,,,0.21,,weatherlink.com 1.10,2013-05-10 18:14:00,
2013-05-10 14:19:00,67.3,58.0,29.77,WSW,258,6.0,17.0,72,0.00,,,0.21,206,Wunderground v.1.15,2013-05-10 18:19:00,
2013-05-10 14:25:00,67.1,57.4,29.76,WSW,256,8.0,17.0,71,0.00,,,0.21,213,Wunderground v.1.15,2013-05-10 18:25:00,
2013-05-10 14:31:00,67.3,58.0,29.77,West,264,12.0,-999.0,72,-99.99,,,0.21,,weatherlink.com 1.10,2013-05-10 18:31:00,
2013-05-10 14:36:00,67.5,58.2,29.77,SW,217,7.0,17.0,72,0.00,,,0.21,304,Wunderground v.1.15,2013-05-10 18:36:00,
2013-05-10 14:42:00,67.6,58.2,29.77,WSW,238,7.0,17.0,72,0.00,,,0.21,274,Wunderground v.1.15,2013-05-10 18:42:00,
2013-05-10 14:48:00,67.4,57.3,29.76,SW,231,7.0,17.0,70,0.00,,,0.21,255,Wunderground v.1.15,2013-05-10 18:48:00,
2013-05-10 14:54:00,67.1,57.0,29.76,SW,236,9.0,17.0,70,0.00,,,0.21,308,Wunderground v.1.15,2013-05-10 18:54:00,
2013-05-10 15:00:00,67.4,58.1,29.76,SW,236,7.0,7.0,72,0.00,,,0.21,380,Wunderground v.1.15,2013-05-10 19:00:00,
2013-05-10 15:06:00,67.7,58.0,29.76,SW,225,5.0,18.0,71,0.00,,,0.21,461,Wunderground v.1.15,2013-05-10 19:06:00,
2013-05-10 15:12:00,68.0,58.2,29.75,SW,221,6.0,18.0,71,0.00,,,0.21,531,Wunderground v.1.15,2013-05-10 19:12:00,
2013-05-10 15:18:00,68.1,57.9,29.75,WSW,248,8.0,18.0,70,0.00,,,0.21,566,Wunderground v.1.15,2013-05-10 19:18:00,
2013-05-10 15:24:00,68.1,57.9,29.75,SW,218,9.0,18.0,70,0.00,,,0.21,338,Wunderground v.1.15,2013-05-10 19:24:00,
2013-05-10 15:29:00,68.1,58.0,29.75,WSW,249,11.0,-999.0,69,-99.99,,,0.21,,weatherlink.com 1.10,2013-05-10 19:29:00,
2013-05-10 15:35:00,67.7,58.0,29.75,West,261,11.0,18.0,71,0.00,,,0.21,345,Wunderground v.1.15,2013-05-10 19:35:00,
2013-05-10 15:40:00,67.1,58.2,29.75,West,270,11.0,11.0,73,0.00,,,0.21,207,Wunderground v.1.15,2013-05-10 19:40:00,
2013-05-10 15:46:00,66.7,58.5,29.74,WNW,290,9.0,18.0,75,0.00,,,0.21,316,Wunderground v.1.15,2013-05-10 19:46:00,
2013-05-10 15:52:00,66.8,58.6,29.74,WSW,244,9.0,18.0,75,0.00,,,0.21,362,Wunderground v.1.15,2013-05-10 19:52:00,
2013-05-10 15:58:00,67.2,58.6,29.73,WSW,256,10.0,18.0,74,0.00,,,0.21,526,Wunderground v.1.15,2013-05-10 19:58:00,
2013-05-10 16:04:00,67.1,58.9,29.74,WNW,291,9.0,21.0,75,0.00,,,0.21,526,Wunderground v.1.15,2013-05-10 20:04:00,
2013-05-10 16:09:00,67.2,58.6,29.73,West,273,8.0,21.0,74,0.00,,,0.21,577,Wunderground v.1.15,2013-05-10 20:09:00,
2013-05-10 16:15:00,68.0,59.0,29.73,SW,225,11.0,-999.0,74,-99.99,,,0.21,,weatherlink.com 1.10,2013-05-10 20:15:00,
2013-05-10 16:20:00,68.1,58.7,29.73,West,276,6.0,21.0,72,0.00,,,0.21,350,Wunderground v.1.15,2013-05-10 20:20:00,
2013-05-10 16:26:00,67.7,58.3,29.73,WSW,238,7.0,21.0,72,0.00,,,0.21,357,Wunderground v.1.15,2013-05-10 20:26:00,
2013-05-10 16:31:00,67.5,58.2,29.73,WNW,295,8.0,21.0,72,0.00,,,0.21,364,Wunderground v.1.15,2013-05-10 20:31:00,
2013-05-10 16:37:00,67.4,57.7,29.73,West,259,8.0,21.0,71,0.00,,,0.21,223,Wunderground v.1.15,2013-05-10 20:37:00,
2013-05-10 16:43:00,67.5,58.2,29.73,WSW,254,9.0,21.0,72,0.00,,,0.21,227,Wunderground v.1.15,2013-05-10 20:43:00,
2013-05-10 16:48:00,67.6,58.2,29.73,West,261,8.0,21.0,72,0.00,,,0.21,466,Wunderground v.1.15,2013-05-10 20:48:00,
2013-05-10 16:54:00,68.1,57.5,29.73,NW,307,9.0,21.0,69,0.00,,,0.21,773,Wunderground v.1.15,2013-05-10 20:54:00,
2013-05-10 17:00:00,68.2,58.0,29.72,West,279,10.0,10.0,70,0.00,,,0.21,724,Wunderground v.1.15,2013-05-10 21:00:00,
2013-05-10 17:06:00,68.4,57.4,29.73,West,259,8.0,19.0,68,0.00,,,0.21,708,Wunderground v.1.15,2013-05-10 21:06:00,
2013-05-10 17:11:00,67.9,57.8,29.73,SSW,195,9.0,9.0,70,0.00,,,0.21,279,Wunderground v.1.15,2013-05-10 21:11:00,
2013-05-10 17:17:00,67.4,57.3,29.73,WSW,248,8.0,19.0,70,0.00,,,0.21,204,Wunderground v.1.15,2013-05-10 21:17:00,
2013-05-10 17:23:00,66.7,56.6,29.72,NW,307,8.0,19.0,70,0.00,,,0.21,174,Wunderground v.1.15,2013-05-10 21:23:00,
2013-05-10 17:29:00,66.5,56.0,29.73,West,274,1.0,-999.0,70,-99.99,,,0.21,,weatherlink.com 1.10,2013-05-10 21:29:00,
2013-05-10 17:35:00,66.4,56.3,29.72,WSW,253,7.0,19.0,70,0.00,,,0.21,132,Wunderground v.1.15,2013-05-10 21:35:00,
2013-05-10 17:41:00,66.4,56.3,29.73,WSW,246,7.0,19.0,70,0.00,,,0.21,156,Wunderground v.1.15,2013-05-10 21:41:00,
2013-05-10 17:47:00,66.8,57.1,29.72,WSW,238,6.0,19.0,71,0.00,,,0.21,223,Wunderground v.1.15,2013-05-10 21:47:00,
2013-05-10 17:52:00,67.4,56.5,29.72,WSW,251,6.0,19.0,68,0.00,,,0.21,218,Wunderground v.1.15,2013-05-10 21:52:00,
2013-05-10 17:58:00,67.5,56.2,29.72,West,267,8.0,19.0,67,0.00,,,0.21,162,Wunderground v.1.15,2013-05-10 21:58:00,
2013-05-10 17:59:00,67.3,56.0,29.72,NW,306,8.0,19.0,67,0.00,,,0.21,149,Wunderground v.1.15,2013-05-10 21:59:00,
2013-05-10 18:00:00,67.1,55.8,29.73,West,276,8.0,8.0,67,0.00,,,0.21,123,Wunderground v.1.15,2013-05-10 22:00:00,
2013-05-10 18:02:00,66.9,56.0,29.72,WSW,251,8.0,12.0,68,0.00,,,0.21,120,Wunderground v.1.15,2013-05-10 22:02:00,
2013-05-10 18:03:00,66.8,55.9,29.72,West,259,8.0,20.0,68,0.00,,,0.21,123,Wunderground v.1.15,2013-05-10 22:03:00,
2013-05-10 18:08:00,66.5,55.6,29.72,West,276,8.0,20.0,68,0.00,,,0.21,125,Wunderground v.1.15,2013-05-10 22:08:00,
2013-05-10 18:13:00,66.5,55.2,29.72,SW,236,7.0,20.0,67,0.00,,,0.21,167,Wunderground v.1.15,2013-05-10 22:13:00,
2013-05-10 18:19:00,66.3,55.4,29.72,WNW,290,8.0,20.0,68,0.00,,,0.21,269,Wunderground v.1.15,2013-05-10 22:19:00,
2013-05-10 18:25:00,66.0,55.1,29.72,WNW,302,7.0,20.0,68,0.00,,,0.21,241,Wunderground v.1.15,2013-05-10 22:25:00,
2013-05-10 18:31:00,65.9,55.4,29.73,WSW,258,7.0,20.0,69,0.00,,,0.21,176,Wunderground v.1.15,2013-05-10 22:31:00,
2013-05-10 18:36:00,65.2,55.2,29.73,WNW,294,8.0,20.0,70,0.00,,,0.21,185,Wunderground v.1.15,2013-05-10 22:36:00,
2013-05-10 18:41:00,64.4,54.0,29.73,NW,305,8.0,10.0,69,0.00,,,0.21,146,Wunderground v.1.15,2013-05-10 22:41:00,
2013-05-10 18:47:00,63.6,54.0,29.74,West,278,8.0,20.0,71,0.00,,,0.21,105,Wunderground v.1.15,2013-05-10 22:47:00,
2013-05-10 18:53:00,63.2,53.6,29.73,West,267,7.0,20.0,71,0.00,,,0.21,104,Wunderground v.1.15,2013-05-10 22:53:00,
2013-05-10 18:58:00,62.8,53.6,29.74,WNW,287,7.0,20.0,72,0.00,,,0.21,88,Wunderground v.1.15,2013-05-10 22:58:00,
2013-05-10 19:04:00,62.6,53.4,29.74,West,268,5.0,17.0,72,0.00,,,0.21,77,Wunderground v.1.15,2013-05-10 23:04:00,
2013-05-10 19:10:00,62.3,53.2,29.74,West,279,6.0,6.0,72,0.00,,,0.21,86,Wunderground v.1.15,2013-05-10 23:10:00,
2013-05-10 19:16:00,61.9,53.1,29.75,NW,304,6.0,17.0,73,0.00,,,0.21,95,Wunderground v.1.15,2013-05-10 23:16:00,
2013-05-10 19:22:00,61.4,53.0,29.75,WNW,294,6.0,17.0,74,0.00,,,0.21,58,Wunderground v.1.15,2013-05-10 23:22:00,
2013-05-10 19:27:00,60.6,52.3,29.75,West,260,8.0,17.0,74,0.00,,,0.21,53,Wunderground v.1.15,2013-05-10 23:27:00,
2013-05-10 19:33:00,59.6,51.7,29.75,West,273,9.0,17.0,75,0.00,,,0.21,56,Wunderground v.1.15,2013-05-10 23:33:00,
2013-05-10 19:39:00,59.1,51.5,29.76,West,280,10.0,17.0,76,0.00,,,0.21,65,Wunderground v.1.15,2013-05-10 23:39:00,
2013-05-10 19:45:00,58.9,51.0,29.76,NW,311,9.0,-999.0,76,-99.99,,,0.21,,weatherlink.com 1.10,2013-05-10 23:45:00,
2013-05-10 19:51:00,58.2,50.7,29.76,West,275,9.0,17.0,76,0.00,,,0.21,93,Wunderground v.1.15,2013-05-10 23:51:00,
2013-05-10 19:56:00,57.8,50.6,29.76,WNW,284,8.0,17.0,77,0.00,,,0.21,49,Wunderground v.1.15,2013-05-10 23:56:00,
2013-05-10 20:02:00,57.1,50.3,29.77,West,279,6.0,17.0,78,0.00,,,0.21,32,Wunderground v.1.15,2013-05-11 00:02:00,
2013-05-10 20:07:00,56.2,50.1,29.77,West,272,7.0,17.0,80,0.00,,,0.21,30,Wunderground v.1.15,2013-05-11 00:07:00,
2013-05-10 20:13:00,55.6,49.5,29.77,WNW,296,9.0,17.0,80,0.00,,,0.21,21,Wunderground v.1.15,2013-05-11 00:13:00,
2013-05-10 20:18:00,55.2,49.5,29.77,WNW,302,8.0,17.0,81,0.00,,,0.21,19,Wunderground v.1.15,2013-05-11 00:18:00,
2013-05-10 20:24:00,54.7,49.3,29.78,West,277,7.0,17.0,82,0.00,,,0.21,21,Wunderground v.1.15,2013-05-11 00:24:00,
2013-05-10 20:30:00,54.4,49.3,29.78,West,281,6.0,6.0,83,0.00,,,0.21,18,Wunderground v.1.15,2013-05-11 00:30:00,
2013-05-10 20:36:00,54.1,49.4,29.78,NW,319,6.0,17.0,84,0.00,,,0.21,9,Wunderground v.1.15,2013-05-11 00:36:00,
2013-05-10 20:42:00,54.1,49.4,29.79,West,267,7.0,17.0,84,0.00,,,0.21,0,Wunderground v.1.15,2013-05-11 00:42:00,
2013-05-10 20:48:00,54.1,49.4,29.79,WNW,299,4.0,17.0,84,0.00,,,0.21,0,Wunderground v.1.15,2013-05-11 00:48:00,
2013-05-10 20:54:00,54.1,49.7,29.79,NW,304,3.0,17.0,85,0.00,,,0.21,0,Wunderground v.1.15,2013-05-11 00:54:00,
2013-05-10 20:59:00,54.0,50.0,29.79,NW,322,3.0,-999.0,85,-99.99,,,0.21,,weatherlink.com 1.10,2013-05-11 00:59:00,
2013-05-10 21:05:00,53.8,49.7,29.79,West,264,6.0,17.0,86,0.00,,,0.21,0,Wunderground v.1.15,2013-05-11 01:05:00,
2013-05-10 21:11:00,53.7,49.6,29.80,WNW,296,5.0,11.0,86,0.00,,,0.21,0,Wunderground v.1.15,2013-05-11 01:11:00,
2013-05-10 21:17:00,53.0,49.2,29.81,North,355,6.0,17.0,87,0.00,,,0.21,0,Wunderground v.1.15,2013-05-11 01:17:00,
2013-05-10 21:23:00,52.2,48.8,29.81,North,360,7.0,17.0,88,0.00,,,0.21,0,Wunderground v.1.15,2013-05-11 01:23:00,
2013-05-10 21:29:00,51.9,48.5,29.81,NNW,331,7.0,17.0,88,0.00,,,0.21,0,Wunderground v.1.15,2013-05-11 01:29:00,
2013-05-10 21:35:00,51.6,48.5,29.81,NNW,344,5.0,17.0,89,0.00,,,0.21,0,Wunderground v.1.15,2013-05-11 01:35:00,
2013-05-10 21:40:00,51.4,48.6,29.82,NNW,334,4.0,4.0,90,0.00,,,0.21,0,Wunderground v.1.15,2013-05-11 01:40:00,
2013-05-10 21:46:00,51.3,48.2,29.82,NW,320,4.0,17.0,89,0.00,,,0.21,0,Wunderground v.1.15,2013-05-11 01:46:00,
2013-05-10 21:52:00,51.4,48.3,29.82,North,9,4.0,17.0,89,0.00,,,0.21,0,Wunderground v.1.15,2013-05-11 01:52:00,
2013-05-10 21:57:00,51.3,48.2,29.82,NW,315,5.0,17.0,89,0.00,,,0.21,0,Wunderground v.1.15,2013-05-11 01:57:00,
2013-05-10 22:02:00,51.2,48.4,29.83,NNW,348,5.0,15.0,90,0.00,,,0.21,0,Wunderground v.1.15,2013-05-11 02:02:00,
2013-05-10 22:07:00,51.0,48.2,29.83,NNW,329,4.0,15.0,90,0.00,,,0.21,0,Wunderground v.1.15,2013-05-11 02:07:00,
2013-05-10 22:13:00,50.8,47.7,29.83,NW,314,5.0,15.0,89,0.00,,,0.21,0,Wunderground v.1.15,2013-05-11 02:13:00,
2013-05-10 22:19:00,50.6,47.5,29.83,NNW,336,6.0,15.0,89,0.00,,,0.21,0,Wunderground v.1.15,2013-05-11 02:19:00,
2013-05-10 22:24:00,50.5,47.4,29.83,North,5,6.0,15.0,89,0.00,,,0.21,0,Wunderground v.1.15,2013-05-11 02:24:00,
2013-05-10 22:30:00,50.1,46.7,29.84,NNW,346,6.0,6.0,88,0.00,,,0.21,0,Wunderground v.1.15,2013-05-11 02:30:00,
2013-05-10 22:36:00,49.9,46.5,29.83,North,351,6.0,15.0,88,0.00,,,0.21,0,Wunderground v.1.15,2013-05-11 02:36:00,
2013-05-10 22:42:00,49.8,46.4,29.84,NNW,340,5.0,15.0,88,0.00,,,0.21,0,Wunderground v.1.15,2013-05-11 02:42:00,
2013-05-10 22:48:00,49.6,45.9,29.84,NW,305,5.0,15.0,87,0.00,,,0.21,0,Wunderground v.1.15,2013-05-11 02:48:00,
2013-05-10 22:54:00,49.3,45.6,29.84,North,5,5.0,15.0,87,0.00,,,0.21,0,Wunderground v.1.15,2013-05-11 02:54:00,
2013-05-10 23:00:00,49.3,45.6,29.84,NNW,343,3.0,4.0,87,0.00,,,0.21,0,Wunderground v.1.15,2013-05-11 03:00:00,
2013-05-10 23:06:00,49.1,45.7,29.84,North,5,4.0,15.0,88,0.00,,,0.21,0,Wunderground v.1.15,2013-05-11 03:06:00,
2013-05-10 23:12:00,48.9,45.5,29.84,North,11,3.0,15.0,88,0.00,,,0.21,0,Wunderground v.1.15,2013-05-11 03:12:00,
2013-05-10 23:18:00,48.8,45.4,29.84,North,350,4.0,15.0,88,0.00,,,0.21,0,Wunderground v.1.15,2013-05-11 03:18:00,
2013-05-10 23:24:00,48.8,45.1,29.85,North,5,4.0,15.0,87,0.00,,,0.21,0,Wunderground v.1.15,2013-05-11 03:24:00,
2013-05-10 23:30:00,48.5,44.8,29.85,NNW,346,6.0,15.0,87,0.00,,,0.21,0,Wunderground v.1.15,2013-05-11 03:30:00,
2013-05-10 23:37:00,48.5,44.5,29.85,NNE,17,4.0,15.0,86,0.00,,,0.21,0,Wunderground v.1.15,2013-05-11 03:37:00,
2013-05-10 23:43:00,48.4,45.0,29.85,North,355,3.0,-999.0,87,-99.99,,,0.21,,weatherlink.com 1.10,2013-05-11 03:43:00,
2013-05-10 23:49:00,48.2,44.2,29.85,North,355,5.0,15.0,86,0.00,,,0.21,0,Wunderground v.1.15,2013-05-11 03:49:00,
2013-05-10 23:55:00,48.2,44.5,29.85,NNW,339,5.0,15.0,87,0.00,,,0.21,0,Wunderground v.1.15,2013-05-11 03:55:00,